Location: Colonie
(42.7179°N, 73.8335°W)
Time: 05:36:14
(UTC+00:00)

Cosmos 1346 Rocket - Pass Details

Date: 29 October 2020
Orbit: 535 x 543 km, 81.2° (Epoch: 27 November)

Event Time Altitude Azimuth Distance (km) Brightness Sun altitude
Rises 22:16:21 0° 6° (N) 2,714 6.2 -5.3°
Reaches altitude 10° 22:19:09 10° 27° (NNE) 1,817 5.1 -5.8°
Maximum altitude 22:21:50 17° 69° (ENE) 1,413 4.3 -6.2°
Drops below altitude 10° 22:24:31 10° 112° (ESE) 1,808 5.0 -6.7°
Sets 22:27:17 0° 132° (SE) 2,695 6.0 -7.2°
